<?xml version="1.0" encoding="UTF-8" standalone="no" ?>
<gpx xmlns="http://www.topografix.com/GPX/1/1" xmlns:xsi="http://www.w3.org/2001/XMLSchema-instance" xsi:schemaLocation="http://www.topografix.com/GPX/1/1 http://www.topografix.com/GPX/1/1/gpx.xsd" version="1.1" creator="VisuGPX - https://www.visugpx.com">
  <metadata>
    <name>LePouliguen_LeCroisic_10-20km</name>
    <desc><![CDATA[gnerando idor:14387918_14388012_14411987_14458844_14458865]]></desc>
  </metadata>
  <trk>
    <name><![CDATA[LePouliguen_BoucleVersBatz_12.3km-14388012]]></name>
    <extensions>
      <line xmlns="http://www.topografix.com/GPX/gpx_style/0/2">
        <color>00FF00</color>
        <width>4</width>
      </line>
    </extensions>
    <trkseg>
      <trkpt lat="47.28264" lon="-2.4338">
        <ele>3</ele>
        <time>2023-11-04T19:24:51Z</time>
      </trkpt>
      <trkpt lat="47.28162" lon="-2.43243">
        <ele>4</ele>
        <time>2023-11-04T19:27:55Z</time>
      </trkpt>
      <trkpt lat="47.28092" lon="-2.43131">
        <ele>4</ele>
        <time>2023-11-04T19:30:13Z</time>
      </trkpt>
      <trkpt lat="47.28089" lon="-2.42903">
        <ele>6</ele>
        <time>2023-11-04T19:33:39Z</time>
      </trkpt>
      <trkpt lat="47.28039" lon="-2.428">
        <ele>5</ele>
        <time>2023-11-04T19:35:34Z</time>
      </trkpt>
      <trkpt lat="47.27833" lon="-2.42818">
        <ele>4</ele>
        <time>2023-11-04T19:40:10Z</time>
      </trkpt>
      <trkpt lat="47.27667" lon="-2.42783">
        <ele>4</ele>
        <time>2023-11-04T19:43:53Z</time>
      </trkpt>
      <trkpt lat="47.27381" lon="-2.4241">
        <ele>6</ele>
        <time>2023-11-04T19:52:23Z</time>
      </trkpt>
      <trkpt lat="47.27192" lon="-2.42517">
        <ele>7</ele>
        <time>2023-11-04T19:56:53Z</time>
      </trkpt>
      <trkpt lat="47.27029" lon="-2.42487">
        <ele>6</ele>
        <time>2023-11-04T20:00:32Z</time>
      </trkpt>
      <trkpt lat="47.26939" lon="-2.4232">
        <ele>1.5</ele>
        <time>2023-11-04T20:03:45Z</time>
      </trkpt>
      <trkpt lat="47.2688" lon="-2.42341">
        <ele>2</ele>
        <time>2023-11-04T20:05:06Z</time>
      </trkpt>
      <trkpt lat="47.26578" lon="-2.42152">
        <ele>6</ele>
        <time>2023-11-04T20:12:24Z</time>
      </trkpt>
      <trkpt lat="47.26519" lon="-2.41951">
        <ele>4</ele>
        <time>2023-11-04T20:15:43Z</time>
      </trkpt>
      <trkpt lat="47.26327" lon="-2.41908">
        <ele>5</ele>
        <time>2023-11-04T20:20:02Z</time>
      </trkpt>
      <trkpt lat="47.26155" lon="-2.4168">
        <ele>5</ele>
        <time>2023-11-04T20:25:10Z</time>
      </trkpt>
      <trkpt lat="47.2601" lon="-2.41998">
        <ele>12</ele>
        <time>2023-11-04T20:30:57Z</time>
      </trkpt>
      <trkpt lat="47.25876" lon="-2.42058">
        <ele>5</ele>
        <time>2023-11-04T20:34:04Z</time>
      </trkpt>
      <trkpt lat="47.25981" lon="-2.42461">
        <ele>6</ele>
        <time>2023-11-04T20:40:35Z</time>
      </trkpt>
      <trkpt lat="47.25975" lon="-2.42861">
        <ele>7</ele>
        <time>2023-11-04T20:46:38Z</time>
      </trkpt>
      <trkpt lat="47.2594" lon="-2.43015">
        <ele>8</ele>
        <time>2023-11-04T20:49:05Z</time>
      </trkpt>
      <trkpt lat="47.2582" lon="-2.43161">
        <ele>3</ele>
        <time>2023-11-04T20:52:32Z</time>
      </trkpt>
      <trkpt lat="47.25931" lon="-2.43238">
        <ele>5</ele>
        <time>2023-11-04T20:55:16Z</time>
      </trkpt>
      <trkpt lat="47.26071" lon="-2.4365">
        <ele>6</ele>
        <time>2023-11-04T21:02:13Z</time>
      </trkpt>
      <trkpt lat="47.26065" lon="-2.44024">
        <ele>7</ele>
        <time>2023-11-04T21:07:52Z</time>
      </trkpt>
      <trkpt lat="47.26193" lon="-2.44478">
        <ele>7</ele>
        <time>2023-11-04T21:15:17Z</time>
      </trkpt>
      <trkpt lat="47.26222" lon="-2.44779">
        <ele>5</ele>
        <time>2023-11-04T21:19:53Z</time>
      </trkpt>
      <trkpt lat="47.26356" lon="-2.44929">
        <ele>7</ele>
        <time>2023-11-04T21:23:37Z</time>
      </trkpt>
      <trkpt lat="47.26403" lon="-2.45024">
        <ele>8</ele>
        <time>2023-11-04T21:25:24Z</time>
      </trkpt>
      <trkpt lat="47.26295" lon="-2.45092">
        <ele>3</ele>
        <time>2023-11-04T21:28:01Z</time>
      </trkpt>
      <trkpt lat="47.26412" lon="-2.45281">
        <ele>3</ele>
        <time>2023-11-04T21:31:52Z</time>
      </trkpt>
      <trkpt lat="47.26566" lon="-2.45298">
        <ele>7</ele>
        <time>2023-11-04T21:35:18Z</time>
      </trkpt>
      <trkpt lat="47.26814" lon="-2.45521">
        <ele>7</ele>
        <time>2023-11-04T21:41:46Z</time>
      </trkpt>
      <trkpt lat="47.26799" lon="-2.45611">
        <ele>5</ele>
        <time>2023-11-04T21:43:10Z</time>
      </trkpt>
      <trkpt lat="47.26866" lon="-2.45702">
        <ele>5</ele>
        <time>2023-11-04T21:45:11Z</time>
      </trkpt>
      <trkpt lat="47.26907" lon="-2.45886">
        <ele>4</ele>
        <time>2023-11-04T21:48:07Z</time>
      </trkpt>
      <trkpt lat="47.26971" lon="-2.45985">
        <ele>5</ele>
        <time>2023-11-04T21:50:11Z</time>
      </trkpt>
      <trkpt lat="47.27032" lon="-2.46182">
        <ele>6</ele>
        <time>2023-11-04T21:53:27Z</time>
      </trkpt>
      <trkpt lat="47.26956" lon="-2.46294">
        <ele>2</ele>
        <time>2023-11-04T21:55:50Z</time>
      </trkpt>
      <trkpt lat="47.27012" lon="-2.46478">
        <ele>3</ele>
        <time>2023-11-04T21:58:53Z</time>
      </trkpt>
      <trkpt lat="47.27076" lon="-2.46508">
        <ele>5</ele>
        <time>2023-11-04T22:00:22Z</time>
      </trkpt>
      <trkpt lat="47.27099" lon="-2.46586">
        <ele>6</ele>
        <time>2023-11-04T22:01:39Z</time>
      </trkpt>
      <trkpt lat="47.26968" lon="-2.46766">
        <ele>5</ele>
        <time>2023-11-04T22:05:38Z</time>
      </trkpt>
      <trkpt lat="47.26988" lon="-2.47139">
        <ele>6</ele>
        <time>2023-11-04T22:11:17Z</time>
      </trkpt>
      <trkpt lat="47.27105" lon="-2.47089">
        <ele>14</ele>
        <time>2023-11-04T22:14:00Z</time>
      </trkpt>
      <trkpt lat="47.27131" lon="-2.46826">
        <ele>13</ele>
        <time>2023-11-04T22:18:00Z</time>
      </trkpt>
      <trkpt lat="47.27667" lon="-2.46281">
        <ele>7</ele>
        <time>2023-11-04T22:32:29Z</time>
      </trkpt>
      <trkpt lat="47.27627" lon="-2.45732">
        <ele>6</ele>
        <time>2023-11-04T22:40:49Z</time>
      </trkpt>
      <trkpt lat="47.27693" lon="-2.45697">
        <ele>7</ele>
        <time>2023-11-04T22:42:23Z</time>
      </trkpt>
      <trkpt lat="47.27513" lon="-2.44873">
        <ele>3</ele>
        <time>2023-11-04T22:55:27Z</time>
      </trkpt>
      <trkpt lat="47.27551" lon="-2.44809">
        <ele>3</ele>
        <time>2023-11-04T22:56:44Z</time>
      </trkpt>
      <trkpt lat="47.27411" lon="-2.44178">
        <ele>4</ele>
        <time>2023-11-04T23:06:45Z</time>
      </trkpt>
      <trkpt lat="47.27589" lon="-2.44067">
        <ele>3</ele>
        <time>2023-11-04T23:11:03Z</time>
      </trkpt>
      <trkpt lat="47.27734" lon="-2.44092">
        <ele>1</ele>
        <time>2023-11-04T23:14:17Z</time>
      </trkpt>
      <trkpt lat="47.27792" lon="-2.43865">
        <ele>1</ele>
        <time>2023-11-04T23:17:57Z</time>
      </trkpt>
      <trkpt lat="47.28188" lon="-2.43331">
        <ele>2</ele>
        <time>2023-11-04T23:29:53Z</time>
      </trkpt>
      <trkpt lat="47.28261" lon="-2.43406">
        <ele>2</ele>
        <time>2023-11-04T23:31:52Z</time>
      </trkpt>
    </trkseg>
  </trk>
</gpx>